FW9312 Weather Reports


time (UTC)temp
C
wind
direction
speed
KPH
gust
KPH
rain 1hr
cm
rain 24hr
cm
rain mn
cm
humidity
%
barometer
mb
20260509211409 22 84 4.8 6.4 0.00 0.00 0.00 53 1008.8
20260509210906 21 191 4.8 4.8 0.00 0.00 0.00 54 1009.0
20260509210403 22 169 3.2 3.2 0.00 0.00 0.00 54 1008.8
20260509205858 20 301 1.6 1.6 0.00 0.00 0.00 57 1008.9
20260509205352 21 254 1.6 1.6 0.00 0.00 0.00 56 1009.1
20260509204849 21 102 1.6 1.6 0.00 0.00 0.00 55 1009.0
20260509204345 21 47 1.6 3.2 0.00 0.00 0.00 56 1009.1
20260509203842 21 221 3.2 3.2 0.00 0.00 0.00 54 1009.1
20260509203338 21 171 0.0 0.0 0.00 0.00 0.00 56 1009.1
20260509202835 21 239 1.6 3.2 0.00 0.00 0.00 55 1009.2
20260509202331 21 250 0.0 0.0 0.00 0.00 0.00 56 1009.0
20260509201831 21 141 0.0 1.6 0.00 0.00 0.00 55 1009.1
20260509201328 21 197 1.6 3.2 0.00 0.00 0.00 53 1008.9
20260509200824 22 132 0.0 0.0 0.00 0.00 0.00 53 1008.9
20260509200320 22 67 1.6 1.6 0.00 0.00 0.00 52 1009.0
20260509195816 22 261 1.6 3.2 0.00 0.00 0.00 51 1009.2
20260509195316 22 294 0.0 0.0 0.00 0.00 0.00 50 1009.1
20260509194816 22 47 3.2 3.2 0.00 0.00 0.00 53 1009.2
20260509194313 22 252 1.6 1.6 0.00 0.00 0.00 52 1009.1
20260509193809 22 129 3.2 3.2 0.00 0.00 0.00 52 1009.0
20260509193309 21 219 0.0 0.0 0.00 0.00 0.00 53 1009.2
20260509192806 21 161 1.6 1.6 0.00 0.00 0.00 53 1009.4
20260509192305 21 131 1.6 1.6 0.00 0.00 0.00 54 1009.3
20260509191756 21 240 1.6 1.6 0.00 0.00 0.00 53 1009.4
20260509191253 21 109 4.8 4.8 0.00 0.00 0.00 54 1009.1
20260509190749 21 112 0.0 1.6 0.00 0.00 0.00 56 1009.4
20260509190247 21 111 1.6 1.6 0.00 0.00 0.00 53 1009.4
20260509185744 21 241 0.0 0.0 0.00 0.00 0.00 54 1009.7
20260509185240 21 272 0.0 1.6 0.00 0.00 0.00 57 1009.8
20260509184738 20 276 0.0 0.0 0.00 0.00 0.00 54 1009.8
20260509184235 20 184 0.0 1.6 0.00 0.00 0.00 55 1009.7
20260509183731 20 132 1.6 1.6 0.00 0.00 0.00 56 1009.8
20260509183226 20 111 4.8 4.8 0.00 0.00 0.00 55 1009.9
20260509182722 20 56 3.2 4.8 0.00 0.00 0.00 54 1009.8
20260509182220 20 30 1.6 3.2 0.00 0.00 0.00 54 1010.2
20260509181717 20 135 0.0 1.6 0.00 0.00 0.00 56 1010.2
20260509181214 20 67 3.2 4.8 0.00 0.00 0.00 55 1010.2
20260509180711 20 105 0.0 1.6 0.00 0.00 0.00 58 1010.3
20260509180207 20 46 4.8 9.7 0.00 0.00 0.00 56 1010.4
20260509175704 20 235 0.0 1.6 0.00 0.00 0.00 56 1010.4
20260509175201 20 17 1.6 1.6 0.00 0.00 0.00 55 1010.8
20260509174656 20 136 1.6 1.6 0.00 0.00 0.00 55 1010.9
20260509174151 20 36 0.0 1.6 0.00 0.00 0.00 55 1010.9
20260509173647 18 151 0.0 1.6 0.00 0.00 0.00 58 1011.2
20260509173143 19 48 3.2 3.2 0.00 0.00 0.00 58 1011.2
20260509172639 18 100 1.6 1.6 0.00 0.00 0.00 57 1011.2
20260509172136 18 66 1.6 3.2 0.00 0.00 0.00 58 1011.4
20260509171632 18 265 0.0 0.0 0.00 0.00 0.00 58 1011.5
20260509171128 18 267 0.0 0.0 0.00 0.00 0.00 58 1011.6
20260509170625 18 74 1.6 1.6 0.00 0.00 0.00 58 1011.6
20260509170121 18 17 1.6 1.6 0.00 0.00 0.00 57 1011.6
20260509165619 18 152 0.0 0.0 0.00 0.00 0.00 59 1011.4
20260509165115 18 76 1.6 1.6 0.00 0.00 0.00 57 1011.2
20260509164611 18 139 1.6 1.6 0.00 0.00 0.00 57 1011.1
20260509164107 18 60 1.6 1.6 0.00 0.00 0.00 59 1011.1
20260509163605 18 129 3.2 3.2 0.00 0.00 0.00 58 1011.1
20260509163100 18 143 0.0 0.0 0.00 0.00 0.00 60 1011.1
20260509162558 18 79 1.6 3.2 0.00 0.00 0.00 57 1011.3
20260509162054 18 120 1.6 1.6 0.00 0.00 0.00 60 1011.3
20260509161551 18 55 1.6 3.2 0.00 0.00 0.00 56 1011.5
20260509161050 18 140 0.0 0.0 0.00 0.00 0.00 56 1011.3
20260509160547 19 62 1.6 1.6 0.00 0.00 0.00 56 1011.5
20260509160042 18 188 1.6 1.6 0.00 0.00 0.00 55 1011.3
20260509155538 19 76 1.6 1.6 0.00 0.00 0.00 55 1011.4
20260509155035 19 159 0.0 1.6 0.00 0.00 0.00 57 1011.3
20260509154531 18 46 3.2 3.2 0.00 0.00 0.00 55 1011.3
20260509154029 18 304 1.6 3.2 0.00 0.00 0.00 55 1011.6
20260509153526 19 68 0.0 1.6 0.00 0.00 0.00 55 1011.4
20260509153023 18 269 0.0 0.0 0.00 0.00 0.00 56 1011.5
20260509152518 18 43 0.0 1.6 0.00 0.00 0.00 58 1011.5
20260509152015 18 268 0.0 0.0 0.00 0.00 0.00 58 1011.5
20260509151512 17 186 1.6 1.6 0.00 0.00 0.00 58 1011.8
20260509151010 17 179 1.6 1.6 0.00 0.00 0.00 58 1011.8
20260509150507 17 230 1.6 3.2 0.00 0.00 0.00 58 1011.9
20260509150006 17 252 0.0 1.6 0.00 0.00 0.00 59 1011.9
20260509145501 17 226 1.6 1.6 0.00 0.00 0.00 57 1011.9
20260509144955 16 223 1.6 1.6 0.00 0.00 0.00 60 1011.9
20260509144453 16 215 1.6 3.2 0.00 0.00 0.00 59 1012.2
20260509143950 16 187 1.6 1.6 0.00 0.00 0.00 61 1012.1
20260509143447 16 224 1.6 1.6 0.00 0.00 0.00 62 1012.1
20260509142944 16 211 0.0 0.0 0.00 0.00 0.00 61 1011.8
20260509142440 16 186 1.6 1.6 0.00 0.00 0.00 61 1012.0
20260509141935 16 176 1.6 3.2 0.00 0.00 0.00 62 1011.8
20260509141432 16 185 1.6 1.6 0.00 0.00 0.00 61 1011.5
20260509140929 16 183 0.0 0.0 0.00 0.00 0.00 62 1011.4
20260509140425 16 185 0.0 1.6 0.00 0.00 0.00 62 1011.5
20260509135924 16 204 0.0 1.6 0.00 0.00 0.00 63 1011.5
20260509135421 15 231 0.0 0.0 0.00 0.00 0.00 63 1011.3
20260509134918 15 236 0.0 1.6 0.00 0.00 0.00 63 1011.7
20260509134415 15 232 0.0 0.0 0.00 0.00 0.00 63 1011.6
20260509133913 15 220 1.6 1.6 0.00 0.00 0.00 63 1011.7
20260509133409 15 211 1.6 1.6 0.00 0.00 0.00 63 1011.7
20260509132908 15 218 1.6 1.6 0.00 0.00 0.00 63 1011.8
20260509132406 15 214 3.2 4.8 0.00 0.00 0.00 61 1011.7
20260509131903 15 186 1.6 1.6 0.00 0.00 0.00 64 1011.8
20260509131359 15 182 3.2 3.2 0.00 0.00 0.00 63 1011.5
20260509130856 15 193 0.0 0.0 0.00 0.00 0.00 62 1011.2
20260509130351 15 193 1.6 1.6 0.00 0.00 0.00 63 1011.3
20260509125849 15 177 0.0 0.0 0.00 0.00 0.00 66 1011.5
20260509125345 14 177 1.6 1.6 0.00 0.00 0.00 67 1011.5
20260509124841 14 177 0.0 0.0 0.00 0.00 0.00 67 1011.4
20260509124338 14 177 0.0 0.0 0.00 0.00 0.00 67 1011.5
20260509123836 14 199 1.6 3.2 0.00 0.00 0.00 68 1011.6
20260509123333 14 208 1.6 1.6 0.00 0.00 0.00 66 1011.8
20260509122828 14 227 3.2 3.2 0.00 0.00 0.00 65 1011.8
20260509122326 15 183 1.6 1.6 0.00 0.00 0.00 67 1011.7
20260509121823 14 220 1.6 1.6 0.00 0.00 0.00 64 1011.5
20260509121320 14 215 0.0 1.6 0.00 0.00 0.00 65 1011.6
20260509120818 13 200 1.6 1.6 0.00 0.00 0.00 66 1011.6
20260509120315 13 195 1.6 1.6 0.00 0.00 0.00 67 1011.7
20260509115814 13 180 3.2 4.8 0.00 0.00 0.00 67 1011.6
20260509115310 13 174 0.0 1.6 0.00 0.00 0.00 68 1011.6
20260509114808 13 193 1.6 1.6 0.00 0.00 0.00 67 1011.5
20260509114307 13 193 0.0 0.0 0.00 0.00 0.00 68 1011.5
20260509113805 13 222 0.0 1.6 0.00 0.00 0.00 66 1011.2
20260509113302 13 223 1.6 1.6 0.00 0.00 0.00 65 1011.5
20260509112759 13 223 0.0 0.0 0.00 0.00 0.00 65 1011.3
20260509112256 13 221 1.6 1.6 0.00 0.00 0.00 64 1011.4
20260509111753 13 231 3.2 3.2 0.00 0.00 0.00 65 1011.5
20260509111250 13 228 0.0 1.6 0.00 0.00 0.00 66 1011.5
20260509110747 13 228 0.0 1.6 0.00 0.00 0.00 65 1011.4
20260509110243 13 229 1.6 1.6 0.00 0.00 0.00 66 1011.3
20260509105742 13 224 1.6 3.2 0.00 0.00 0.00 67 1011.3
20260509105239 13 221 0.0 0.0 0.00 0.00 0.00 67 1011.2
20260509104736 13 221 0.0 1.6 0.00 0.00 0.00 67 1011.0
20260509104233 13 219 0.0 0.0 0.00 0.00 0.00 66 1011.0
20260509103731 13 219 1.6 1.6 0.00 0.00 0.00 67 1010.8
20260509103228 13 221 0.0 1.6 0.00 0.00 0.00 66 1011.0
20260509102726 12 236 0.0 0.0 0.00 0.00 0.00 67 1011.1
20260509102223 12 236 1.6 1.6 0.00 0.00 0.00 67 1011.2
20260509101719 12 231 1.6 1.6 0.00 0.00 0.00 67 1011.0
20260509101215 12 231 0.0 0.0 0.00 0.00 0.00 67 1011.1
20260509100713 12 233 0.0 0.0 0.00 0.00 0.00 68 1010.9
20260509100210 12 233 0.0 1.6 0.00 0.00 0.00 68 1011.0
20260509095707 12 230 1.6 1.6 0.00 0.00 0.00 69 1011.1
20260509095204 11 229 1.6 1.6 0.00 0.00 0.00 73 1011.1
20260509094701 11 222 0.0 0.0 0.00 0.00 0.00 76 1010.8
20260509094158 11 222 0.0 0.0 0.00 0.00 0.00 75 1010.6
20260509093656 12 222 0.0 0.0 0.00 0.00 0.00 74 1011.0
20260509093153 12 222 0.0 0.0 0.00 0.00 0.00 72 1010.9
20260509092651 12 221 0.0 0.0 0.00 0.00 0.00 73 1011.3
20260509092149 12 221 0.0 0.0 0.00 0.00 0.00 72 1011.2
20260509091647 12 221 0.0 0.0 0.00 0.00 0.00 70 1011.0
20260509091142 12 221 0.0 0.0 0.00 0.00 0.00 73 1011.0
20260509090641 12 221 0.0 0.0 0.00 0.00 0.00 69 1011.2
20260509090137 12 221 0.0 0.0 0.00 0.00 0.00 69 1011.2
20260509085635 12 223 0.0 0.0 0.00 0.00 0.00 70 1011.2
20260509085131 12 223 0.0 0.0 0.00 0.00 0.00 71 1011.1
20260509084628 12 223 0.0 0.0 0.00 0.00 0.00 70 1011.1
20260509084125 12 223 0.0 0.0 0.00 0.00 0.00 69 1011.1
20260509083623 12 223 0.0 0.0 0.00 0.00 0.00 68 1011.2
20260509083119 12 222 1.6 1.6 0.00 0.00 0.00 69 1011.4
20260509082616 12 220 1.6 1.6 0.00 0.00 0.00 69 1011.4
20260509082113 12 220 0.0 1.6 0.00 0.00 0.00 70 1011.3
20260509081610 12 220 0.0 0.0 0.00 0.00 0.00 70 1011.3
20260509081107 12 220 0.0 1.6 0.00 0.00 0.00 71 1011.3
20260509080605 12 220 1.6 1.6 0.00 0.00 0.00 73 1011.1
20260509075601 12 219 0.0 0.0 0.00 0.00 0.00 74 1011.3
20260509075058 12 219 0.0 0.0 0.00 0.00 0.00 73 1011.2
20260509074555 12 219 0.0 0.0 0.00 0.00 0.00 72 1011.3
20260509074051 12 219 0.0 0.0 0.00 0.00 0.00 72 1011.3
20260509073548 12 219 0.0 0.0 0.00 0.00 0.00 71 1011.3
20260509073044 12 219 0.0 0.0 0.00 0.00 0.00 72 1011.1
20260509072541 12 219 0.0 0.0 0.00 0.00 0.00 71 1011.4
20260509072038 12 219 0.0 0.0 0.00 0.00 0.00 71 1011.4
20260509071535 12 219 0.0 1.6 0.00 0.00 0.00 70 1011.3
20260509071033 12 219 0.0 0.0 0.00 0.00 0.00 71 1011.5
20260509070529 11 219 0.0 0.0 0.00 0.00 0.00 73 1011.5
20260509070025 11 219 0.0 0.0 0.00 0.00 0.00 74 1011.4
20260509065521 12 219 0.0 0.0 0.00 0.00 0.00 74 1011.5
20260509065017 11 219 0.0 1.6 0.00 0.00 0.00 73 1011.3
20260509064515 11 220 1.6 1.6 0.00 0.00 0.00 76 1011.6
20260509064013 11 217 0.0 0.0 0.00 0.00 0.00 79 1011.4
20260509063508 11 217 0.0 0.0 0.00 0.00 0.00 79 1011.5
20260509063006 10 217 0.0 0.0 0.00 0.00 0.00 82 1011.6
20260509062503 10 217 0.0 0.0 0.00 0.00 0.00 83 1011.7
20260509062000 10 217 0.0 0.0 0.00 0.00 0.00 84 1011.6
20260509061457 10 217 0.0 0.0 0.00 0.00 0.00 84 1011.8
20260509060954 10 217 0.0 0.0 0.00 0.00 0.00 85 1011.6
20260509060452 10 217 0.0 0.0 0.00 0.00 0.00 86 1011.8
20260509055947 10 217 0.0 0.0 0.00 0.00 0.00 86 1011.8
20260509055442 10 217 0.0 0.0 0.00 0.00 0.00 86 1011.8
20260509054939 10 217 0.0 0.0 0.00 0.00 0.00 87 1011.8
20260509054436 10 217 0.0 0.0 0.00 0.00 0.00 87 1011.7
20260509053934 10 217 0.0 0.0 0.00 0.00 0.00 88 1011.8
20260509053432 9 217 0.0 0.0 0.00 0.00 0.00 88 1011.8
20260509052929 9 217 0.0 0.0 0.00 0.00 0.00 87 1011.6
20260509052426 9 217 0.0 0.0 0.00 0.00 0.00 87 1011.8
20260509051925 10 217 0.0 0.0 0.00 0.00 0.00 87 1011.9
20260509051422 10 217 0.0 0.0 0.00 0.00 0.00 87 1011.8
20260509050919 10 217 0.0 0.0 0.00 0.00 0.00 86 1012.1
20260509050415 10 217 0.0 0.0 0.00 0.00 0.00 85 1012.2
20260509045912 10 217 0.0 0.0 0.00 0.00 0.00 84 1012.2
20260509045409 10 217 0.0 0.0 0.00 0.00 0.00 84 1012.1
20260509044906 10 217 0.0 0.0 0.00 0.00 0.00 84 1012.1
20260509044404 10 217 0.0 0.0 0.00 0.00 0.00 84 1012.0
20260509043901 10 217 0.0 0.0 0.00 0.00 0.00 84 1012.0
20260509043356 10 217 0.0 0.0 0.00 0.00 0.00 83 1012.1
20260509042852 10 217 0.0 0.0 0.00 0.00 0.00 83 1012.0
20260509042349 10 217 0.0 0.0 0.00 0.00 0.00 82 1011.9
20260509041846 10 217 0.0 0.0 0.00 0.00 0.00 82 1012.0
20260509041343 10 217 0.0 0.0 0.00 0.00 0.00 81 1012.2
20260509040841 10 217 0.0 0.0 0.00 0.00 0.00 81 1012.1
20260509040338 10 217 0.0 0.0 0.00 0.00 0.00 81 1012.1
20260509035835 10 217 0.0 0.0 0.00 0.00 0.00 80 1012.2
20260509035332 10 217 0.0 0.0 0.00 0.00 0.00 79 1012.2
20260509034828 11 217 0.0 0.0 0.00 0.00 0.00 79 1012.1
20260509034326 11 217 0.0 0.0 0.00 0.00 0.00 78 1012.2
20260509033823 11 217 0.0 0.0 0.00 0.00 0.00 77 1012.2
20260509033320 11 217 0.0 0.0 0.00 0.00 0.00 77 1012.1
20260509032817 11 217 0.0 0.0 0.00 0.00 0.00 77 1012.1
20260509032314 11 217 0.0 0.0 0.00 0.00 0.00 76 1012.0
20260509031812 11 217 0.0 0.0 0.00 0.00 0.00 75 1012.0
20260509031309 11 217 0.0 0.0 0.00 0.00 0.00 74 1012.1
20260509030807 11 217 0.0 0.0 0.00 0.00 0.00 73 1012.2
20260509030304 11 217 0.0 0.0 0.00 0.00 0.00 74 1012.3
20260509025801 11 217 0.0 0.0 0.00 0.00 0.00 73 1012.4
20260509025256 11 217 0.0 0.0 0.00 0.00 0.00 72 1012.4
20260509024752 12 217 0.0 0.0 0.00 0.00 0.00 71 1012.4
20260509024248 12 217 0.0 0.0 0.00 0.00 0.00 70 1012.6
20260509023745 12 217 0.0 0.0 0.00 0.00 0.00 70 1012.5
20260509023242 12 217 0.0 0.0 0.00 0.00 0.00 68 1012.5
20260509022738 13 217 0.0 0.0 0.00 0.00 0.00 67 1012.4
20260509022237 13 217 0.0 0.0 0.00 0.00 0.00 65 1012.4
20260509021733 13 217 0.0 0.0 0.00 0.00 0.00 65 1012.4
20260509021230 13 217 0.0 0.0 0.00 0.00 0.00 65 1012.5
20260509020728 14 217 0.0 0.0 0.00 0.00 0.00 65 1012.3
20260509020225 14 217 0.0 0.0 0.00 0.00 0.00 61 1012.4
20260509015723 15 217 0.0 0.0 0.00 0.00 0.00 61 1012.4
20260509015222 14 217 0.0 0.0 0.00 0.00 0.00 60 1012.4
20260509014717 14 217 0.0 0.0 0.00 0.00 0.00 61 1012.4
20260509014215 15 217 0.0 0.0 0.00 0.00 0.00 60 1012.3
20260509013711 15 217 0.0 0.0 0.00 0.00 0.00 59 1012.2
20260509013207 15 217 0.0 0.0 0.00 0.00 0.00 58 1012.4
20260509012703 15 217 0.0 0.0 0.00 0.00 0.00 56 1012.3
20260509012200 15 217 0.0 0.0 0.00 0.00 0.00 55 1012.3
20260509011658 15 217 0.0 1.6 0.00 0.00 0.00 56 1012.3
20260509011155 15 219 0.0 0.0 0.00 0.00 0.00 57 1012.2
20260509010653 15 219 0.0 0.0 0.00 0.00 0.00 56 1012.2
20260509010149 16 219 0.0 0.0 0.00 0.00 0.00 56 1012.1
20260509005647 16 219 0.0 0.0 0.00 0.00 0.00 58 1012.1
20260509005143 16 219 0.0 0.0 0.00 0.00 0.00 52 1012.0
20260509004639 16 219 0.0 0.0 0.00 0.00 0.00 52 1012.0
20260509004136 16 219 0.0 0.0 0.00 0.00 0.00 54 1011.9
20260509003634 16 219 0.0 0.0 0.00 0.00 0.00 53 1011.9
20260509003131 16 219 0.0 0.0 0.00 0.00 0.00 52 1012.0
20260509002628 16 219 0.0 0.0 0.00 0.00 0.00 49 1011.9
20260509002125 17 219 0.0 0.0 0.00 0.00 0.00 51 1012.0
20260509001624 17 219 0.0 0.0 0.00 0.00 0.00 51 1011.8
20260509001119 17 219 0.0 0.0 0.00 0.00 0.00 47 1011.9
20260509000618 18 219 0.0 0.0 0.00 0.00 0.00 46 1011.7
20260509000114 18 219 0.0 0.0 0.00 0.00 0.00 44 1011.8
20260508235611 18 219 0.0 0.0 0.00 0.00 0.00 41 1011.7
20260508235108 19 219 0.0 0.0 0.00 0.00 0.00 40 1011.6
20260508234605 19 224 0.0 1.6 0.00 0.00 0.00 39 1011.8
20260508234101 19 227 0.0 0.0 0.00 0.00 0.00 40 1011.8
20260508233601 19 228 0.0 1.6 0.00 0.00 0.00 39 1011.7
20260508233058 19 249 0.0 0.0 0.00 0.00 0.00 40 1011.7
20260508232555 20 247 0.0 0.0 0.00 0.00 0.00 38 1011.4
20260508232052 20 250 0.0 1.6 0.00 0.00 0.00 39 1011.7
20260508231550 20 240 0.0 0.0 0.00 0.00 0.00 38 1011.4
20260508231046 20 240 0.0 1.6 0.00 0.00 0.00 38 1011.3
20260508230543 20 15 0.0 1.6 0.00 0.00 0.00 38 1011.4
20260508230039 20 274 0.0 0.0 0.00 0.00 0.00 38 1011.5
20260508225537 20 279 0.0 0.0 0.00 0.00 0.00 38 1011.3
20260508225033 20 279 0.0 1.6 0.00 0.00 0.00 38 1011.5
20260508224532 20 256 1.6 1.6 0.00 0.00 0.00 37 1011.4
20260508224029 20 260 3.2 3.2 0.00 0.00 0.00 37 1011.4
20260508223526 20 276 3.2 3.2 0.00 0.00 0.00 37 1011.5
20260508223023 20 248 3.2 4.8 0.00 0.00 0.00 36 1011.3
20260508222521 20 284 0.0 1.6 0.00 0.00 0.00 37 1011.3
20260508222017 20 221 1.6 1.6 0.00 0.00 0.00 36 1011.4
20260508221514 20 240 1.6 3.2 0.00 0.00 0.00 36 1011.4
20260508221010 20 231 3.2 3.2 0.00 0.00 0.00 35 1011.2
20260508220506 20 219 1.6 1.6 0.00 0.00 0.00 36 1011.3
20260508220002 20 224 3.2 4.8 0.00 0.00 0.00 35 1011.3
20260508215459 20 203 1.6 1.6 0.00 0.00 0.00 36 1011.3
20260508214956 20 248 3.2 4.8 0.00 0.00 0.00 35 1011.4
20260508214454 21 227 3.2 3.2 0.00 0.00 0.00 34 1011.3
20260508213950 20 243 1.6 3.2 0.00 0.00 0.00 35 1011.4
20260508213447 21 265 4.8 6.4 0.00 0.00 0.00 34 1011.5
20260508212942 21 288 4.8 6.4 0.00 0.00 0.00 33 1011.5
20260508212440 21 238 4.8 6.4 0.00 0.00 0.00 34 1011.4
20260508211935 21 235 4.8 4.8 0.00 0.00 0.00 33 1011.3